FLOCK 3K-3 (43892 NORAD) Tracking and Keplerian Element Data

This shows tracking and keplerian element data for the satellite.

Feedback or suggestion? Click here.




ElementValue
Catalog43892
NameFLOCK 3K-3
Epoch Orbit391
Epoch Day21.76617866
Epoch Year2019
RAAN290.9617
Inclination97.3
Eccentricity0.0025135
Argument of Perigee154.8911
Mean Anonmoly205.3555
Mean Motion15.23352947
Decay Rate1.198E-05
L11 43892U 18111S 19021.76617866 .00001198 00000-0 52961-4 0 9994
L22 43892 97.3000 290.9617 0025135 154.8911 205.3555 15.23352947 3915

Live tracking and technical data element details for FLOCK 3K-3 (NORAD 43892). FLOCK 3K-3 can be tracked NOW for your location showing map with azimuth and elevation plus other details from your city location.

Track the satellite on the map from your city or location and see movement details for azimuth, elevation, latitude, longitude, range, height, and movement on the map or in text.







IsCatalogInMostPopularTable: catalog: 43892, numindb: 18
Update: records affected: 1



GetName: 43892 FLOCK 3K-3

Hit Count: updated at: Wed, 23 Jan 2019 03:23:24 GMT